,,,PA_Meas_PMT16A,,PR_Meas_QMR101_102,,RH_Meas_QMH101,,SR_Meas_QMS101,,TA_Meas_QMH101,,GenWind,,GenWind,
date,time,status,PA,status,PR,status,RH,status,SR,status,TA,status,DirAvg,status,SpdAvg,
2009-04-29, 00:00:04,VALID,1005.16,VALID,0,VALID,80.2711,VALID,0,VALID,26.4102,VALID,340,VALID,0.401953,
2009-04-29, 00:01:04,VALID,1005.1,VALID,0,VALID,80.3169,VALID,0,VALID,26.3518,VALID,347,VALID,0.711719,
2009-04-29, 00:02:04,VALID,1005.09,VALID,0,VALID,80.3016,VALID,0,VALID,26.3323,VALID,34,VALID,1.31289,
2009-04-29, 00:03:04,VALID,1005.09,VALID,0,VALID,80.6449,VALID,0,VALID,26.3713,VALID,356,VALID,0.966406,
2009-04-29, 00:04:04,VALID,1005.07,VALID,0,VALID,80.7212,VALID,0,VALID,26.2913,VALID,353,VALID,0.753125,
2009-04-29, 00:05:04,VALID,1005.09,VALID,0,VALID,80.683,VALID,0,VALID,26.2913,VALID,346,VALID,0.735547,
2009-04-29, 00:06:04,VALID,1005.11,VALID,0,VALID,80.7364,VALID,0,VALID,26.3128,VALID,347,VALID,0.407422,
2009-04-29, 00:07:04,VALID,1005.14,VALID,0,VALID,80.6449,VALID,0,VALID,26.2913,VALID,355,VALID,0.725,
2009-04-29, 00:08:04,VALID,1005.15,VALID,0,VALID,80.7517,VALID,0,VALID,26.3303,VALID,330,VALID,0.707031,
2009-04-29, 00:09:04,VALID,1005.15,VALID,0,VALID,80.622,VALID,0,VALID,26.3713,VALID,355,VALID,0.729297,
2009-04-29, 00:10:04,VALID,1005.17,VALID,0,VALID,80.4389,VALID,0,VALID,26.3713,VALID,13,VALID,1.36016,
2009-04-29, 00:11:04,VALID,1005.19,VALID,0,VALID,80.4084,VALID,0,VALID,26.3887,VALID,339,VALID,0.842969,
2009-04-29, 00:12:04,VALID,1005.19,VALID,0,VALID,80.4008,VALID,0.100563,VALID,26.3867,VALID,355,VALID,0.866406,
2009-04-29, 00:13:04,VALID,1005.16,VALID,0,VALID,80.5915,VALID,0.100563,VALID,26.4082,VALID,353,VALID,0.619531,
2009-04-29, 00:14:04,VALID,1005.13,VALID,0,VALID,80.6602,VALID,0,VALID,26.3887,VALID,347,VALID,0.442578,
2009-04-29, 00:15:04,VALID,1005.12,VALID,0,VALID,80.767,VALID,0,VALID,26.3498,VALID,347,VALID,0.946875,
2009-04-29, 00:16:04,VALID,1005.08,VALID,0,VALID,80.7441,VALID,0,VALID,26.3693,VALID,6,VALID,0.668359,
2009-04-29, 00:17:04,VALID,1005.09,VALID,0,VALID,80.9958,VALID,0,VALID,26.3498,VALID,5,VALID,0.388672,
2009-04-29, 00:18:04,VALID,1005.04,VALID,0,VALID,81.3467,VALID,0,VALID,26.3128,VALID,5,VALID,0.376563,
2009-04-29, 00:19:04,VALID,1005.04,VALID,0,VALID,81.4764,VALID,0.100563,VALID,26.2524,VALID,3,VALID,0.689453,
2009-04-29, 00:20:04,VALID,1005.02,VALID,0,VALID,81.629,VALID,0,VALID,26.2134,VALID,346,VALID,0.390234,
2009-04-29, 00:21:04,VALID,1005.03,VALID,0,VALID,81.7663,VALID,0,VALID,26.194,VALID,347,VALID,0.534375,
2009-04-29, 00:22:04,VALID,1005,VALID,0,VALID,81.7816,VALID,0,VALID,26.1765,VALID,348,VALID,0.584766,
2009-04-29, 00:23:04,VALID,1005.02,VALID,0,VALID,81.8731,VALID,0,VALID,26.155,VALID,346,VALID,0.439453,
2009-04-29, 00:24:04,VALID,1005.03,VALID,0,VALID,81.835,VALID,0,VALID,26.155,VALID,355,VALID,0.722656,
2009-04-29, 00:25:04,VALID,1005.03,VALID,0,VALID,82.0028,VALID,0,VALID,26.155,VALID,355,VALID,0.628125,
2009-04-29, 00:26:04,VALID,1005.03,VALID,0,VALID,81.9647,VALID,0,VALID,26.155,VALID,356,VALID,0.759766,
2009-04-29, 00:27:04,VALID,1005.01,VALID,0,VALID,82.163,VALID,0,VALID,26.157,VALID,356,VALID,0.471094,
2009-04-29, 00:28:04,VALID,1005.02,VALID,0,VALID,82.2698,VALID,0,VALID,26.118,VALID,356,VALID,0.394922,
2009-04-29, 00:29:04,VALID,1005.04,VALID,0,VALID,82.3385,VALID,0,VALID,26.0771,VALID,357,VALID,0.525391,
2009-04-29, 00:30:04,VALID,1005.03,VALID,0,VALID,82.5903,VALID,0.100563,VALID,26.0791,VALID,356,VALID,0.694141,
2009-04-29, 00:31:04,VALID,1005.03,VALID,0,VALID,82.8649,VALID,0,VALID,26.0187,VALID,356,VALID,0.79375,
2009-04-29, 00:32:04,VALID,1005.09,VALID,0,VALID,83.0938,VALID,0,VALID,25.9797,VALID,355,VALID,0.565234,
2009-04-29, 00:33:04,VALID,1005.05,VALID,0,VALID,83.2845,VALID,0,VALID,25.9408,VALID,355,VALID,0.885547,
2009-04-29, 00:34:04,VALID,1005.03,VALID,0,VALID,83.5668,VALID,0,VALID,25.8823,VALID,355,VALID,0.741797,
2009-04-29, 00:35:04,VALID,1005.06,VALID,0,VALID,83.6812,VALID,0,VALID,25.8629,VALID,355,VALID,0.673828,
2009-04-29, 00:36:04,VALID,1005.04,VALID,0,VALID,83.8872,VALID,0,VALID,25.8239,VALID,355,VALID,0.573828,
2009-04-29, 00:37:04,VALID,1005,VALID,0,VALID,84.3144,VALID,0,VALID,25.785,VALID,355,VALID,0.496875,
2009-04-29, 00:38:04,VALID,1004.98,VALID,0,VALID,84.4212,VALID,0,VALID,25.746,VALID,351,VALID,0.464844,
2009-04-29, 00:39:04,VALID,1004.93,VALID,0,VALID,84.8637,VALID,0,VALID,25.709,VALID,351,VALID,0.603516,
2009-04-29, 00:40:04,VALID,1004.89,VALID,0,VALID,85.2451,VALID,0,VALID,25.6486,VALID,351,VALID,0.33125,
2009-04-29, 00:41:04,VALID,1004.9,VALID,0,VALID,85.3061,VALID,0,VALID,25.6116,VALID,351,VALID,0.496875,
2009-04-29, 00:42:04,VALID,1004.88,VALID,0,VALID,85.6113,VALID,0,VALID,25.5921,VALID,351,VALID,0.413672,
2009-04-29, 00:43:04,VALID,1004.84,VALID,0,VALID,85.8402,VALID,0,VALID,25.5337,VALID,351,VALID,0.430078,
2009-04-29, 00:44:04,VALID,1004.82,VALID,0,VALID,85.8631,VALID,0,VALID,25.5142,VALID,351,VALID,0.474219,
2009-04-29, 00:45:04,VALID,1004.8,VALID,0,VALID,85.9851,VALID,0,VALID,25.4948,VALID,350,VALID,0.548828,
2009-04-29, 00:46:04,VALID,1004.79,VALID,0,VALID,86.0233,VALID,0,VALID,25.4734,VALID,350,VALID,0.714844,
2009-04-29, 00:47:04,VALID,1004.76,VALID,0,VALID,85.9546,VALID,0,VALID,25.4734,VALID,350,VALID,0.542969,
2009-04-29, 00:48:04,VALID,1004.75,VALID,0,VALID,86.0004,VALID,0,VALID,25.4928,VALID,349,VALID,0.520703,
2009-04-29, 00:49:04,VALID,1004.74,VALID,0,VALID,86.1377,VALID,0,VALID,25.4734,VALID,349,VALID,0.644922,
2009-04-29, 00:50:04,VALID,1004.72,VALID,0,VALID,86.3513,VALID,0,VALID,25.4539,VALID,350,VALID,0.555469,
2009-04-29, 00:51:04,VALID,1004.71,VALID,0,VALID,86.5039,VALID,0.100563,VALID,25.3935,VALID,349,VALID,0.571094,
2009-04-29, 00:52:04,VALID,1004.67,VALID,0,VALID,86.7556,VALID,0.100563,VALID,25.4169,VALID,349,VALID,0.350781,
2009-04-29, 00:53:04,VALID,1004.66,VALID,0,VALID,87.1218,VALID,0,VALID,25.337,VALID,349,VALID,0.223828,
2009-04-29, 00:54:04,VALID,1004.66,VALID,0,VALID,87.427,VALID,0,VALID,25.2397,VALID,349,VALID,0.442187,
2009-04-29, 00:55:04,VALID,1004.68,VALID,0,VALID,87.7626,VALID,0.100563,VALID,25.2007,VALID,349,VALID,0.358203,
2009-04-29, 00:56:04,VALID,1004.67,VALID,0,VALID,88.0373,VALID,0.100563,VALID,25.1423,VALID,349,VALID,0.346875,
2009-04-29, 00:57:04,VALID,1004.68,VALID,0,VALID,88.1975,VALID,0,VALID,25.1442,VALID,349,VALID,0.501172,
2009-04-29, 00:58:04,VALID,1004.67,VALID,0,VALID,88.3501,VALID,0,VALID,25.1034,VALID,349,VALID,0.521484,
2009-04-29, 00:59:04,VALID,1004.68,VALID,0,VALID,88.4569,VALID,0,VALID,25.0839,VALID,351,VALID,0.490234,
2009-04-29, 01:00:04,VALID,1004.73,VALID,0,VALID,88.3958,VALID,0,VALID,25.0839,VALID,350,VALID,0.573828,
2009-04-29, 01:01:04,VALID,1004.71,VALID,0,VALID,88.4264,VALID,0,VALID,25.1053,VALID,350,VALID,0.471484,
2009-04-29, 01:02:04,VALID,1004.72,VALID,0,VALID,88.4035,VALID,0,VALID,25.1248,VALID,350,VALID,0.507422,
2009-04-29, 01:03:04,VALID,1004.71,VALID,0,VALID,88.3958,VALID,0.100563,VALID,25.1229,VALID,350,VALID,0.683594,
2009-04-29, 01:04:04,VALID,1004.7,VALID,0,VALID,88.4111,VALID,0,VALID,25.1034,VALID,350,VALID,0.514844,
2009-04-29, 01:05:04,VALID,1004.72,VALID,0,VALID,88.5179,VALID,0.100563,VALID,25.1053,VALID,350,VALID,0.517578,
2009-04-29, 01:06:04,VALID,1004.68,VALID,0,VALID,88.6094,VALID,0,VALID,25.1034,VALID,350,VALID,0.553906,
2009-04-29, 01:07:04,VALID,1004.7,VALID,0,VALID,88.7391,VALID,0,VALID,25.045,VALID,350,VALID,0.498828,
2009-04-29, 01:08:04,VALID,1004.69,VALID,0,VALID,88.9299,VALID,0,VALID,25.045,VALID,350,VALID,0.425781,
2009-04-29, 01:09:04,VALID,1004.68,VALID,0,VALID,89.0977,VALID,0,VALID,25.0079,VALID,350,VALID,0.465234,
2009-04-29, 01:10:04,VALID,1004.68,VALID,0,VALID,89.296,VALID,0,VALID,24.969,VALID,350,VALID,0.371484,
2009-04-29, 01:11:04,VALID,1004.67,VALID,0,VALID,89.4944,VALID,0,VALID,24.93,VALID,350,VALID,0.389453,
2009-04-29, 01:12:04,VALID,1004.66,VALID,0,VALID,89.7004,VALID,0,VALID,24.8697,VALID,350,VALID,0.473047,
2009-04-29, 01:13:04,VALID,1004.66,VALID,0,VALID,89.8606,VALID,0,VALID,24.8503,VALID,350,VALID,0.283203,
2009-04-29, 01:14:04,VALID,1004.64,VALID,0,VALID,89.9903,VALID,0,VALID,24.7919,VALID,350,VALID,0.550391,
2009-04-29, 01:15:04,VALID,1004.66,VALID,0,VALID,90.1581,VALID,0,VALID,24.7919,VALID,350,VALID,0.661719,
2009-04-29, 01:16:04,VALID,1004.62,VALID,0,VALID,90.2039,VALID,0,VALID,24.8132,VALID,351,VALID,0.530078,
2009-04-29, 01:17:04,VALID,1004.62,VALID,0,VALID,90.242,VALID,0,VALID,24.7919,VALID,352,VALID,0.578125,
2009-04-29, 01:18:04,VALID,1004.62,VALID,0,VALID,90.1734,VALID,0,VALID,24.7724,VALID,352,VALID,0.664453,
2009-04-29, 01:19:04,VALID,1004.61,VALID,0,VALID,90.3412,VALID,0,VALID,24.714,VALID,352,VALID,0.574609,
2009-04-29, 01:20:04,VALID,1004.58,VALID,0,VALID,90.6616,VALID,0.100563,VALID,24.6945,VALID,347,VALID,0.565234,
2009-04-29, 01:21:04,VALID,1004.56,VALID,0,VALID,90.7303,VALID,0.100563,VALID,24.675,VALID,344,VALID,0.446484,
2009-04-29, 01:22:04,VALID,1004.55,VALID,0,VALID,90.8905,VALID,0.100563,VALID,24.6556,VALID,344,VALID,0.35,
2009-04-29, 01:23:04,VALID,1004.53,VALID,0,VALID,90.9439,VALID,0.100563,VALID,24.6556,VALID,344,VALID,0.389453,
2009-04-29, 01:24:04,VALID,1004.53,VALID,0,VALID,90.9973,VALID,0,VALID,24.6769,VALID,345,VALID,0.457422,
2009-04-29, 01:25:04,VALID,1004.51,VALID,0,VALID,91.0278,VALID,0,VALID,24.6574,VALID,345,VALID,0.425391,
2009-04-29, 01:26:04,VALID,1004.51,VALID,0,VALID,90.982,VALID,0,VALID,24.6361,VALID,348,VALID,0.461328,
2009-04-29, 01:27:04,VALID,1004.5,VALID,0,VALID,90.921,VALID,0,VALID,24.6556,VALID,348,VALID,0.511719,
2009-04-29, 01:28:04,VALID,1004.49,VALID,0,VALID,90.9668,VALID,0,VALID,24.6556,VALID,347,VALID,0.384766,
2009-04-29, 01:29:04,VALID,1004.45,VALID,0,VALID,90.9973,VALID,0,VALID,24.6574,VALID,347,VALID,0.289844,
2009-04-29, 01:30:04,VALID,1004.45,VALID,0,VALID,91.0431,VALID,0.100563,VALID,24.6361,VALID,347,VALID,0.30625,
2009-04-29, 01:31:04,VALID,1004.46,VALID,0,VALID,91.0812,VALID,0,VALID,24.6361,VALID,347,VALID,0.295312,
2009-04-29, 01:32:04,VALID,1004.44,VALID,0,VALID,91.1651,VALID,0.100563,VALID,24.6166,VALID,347,VALID,0.372266,
2009-04-29, 01:33:04,VALID,1004.43,VALID,0,VALID,91.188,VALID,0,VALID,24.599,VALID,347,VALID,0.370703,
2009-04-29, 01:34:04,VALID,1004.42,VALID,0,VALID,91.2262,VALID,0,VALID,24.5777,VALID,347,VALID,0.217187,
2009-04-29, 01:35:04,VALID,1004.43,VALID,0,VALID,91.2719,VALID,0.100563,VALID,24.5972,VALID,347,VALID,0.239453,
2009-04-29, 01:36:04,VALID,1004.45,VALID,0,VALID,91.2796,VALID,0.100563,VALID,24.5777,VALID,347,VALID,0.2125,
2009-04-29, 01:37:04,VALID,1004.46,VALID,0,VALID,91.2796,VALID,0,VALID,24.5777,VALID,347,VALID,0.0855469,
2009-04-29, 01:38:04,VALID,1004.47,VALID,0,VALID,91.2796,VALID,0,VALID,24.5582,VALID,347,VALID,0,
2009-04-29, 01:39:04,VALID,1004.43,VALID,0,VALID,91.3024,VALID,0,VALID,24.5777,VALID,347,VALID,0,
2009-04-29, 01:40:04,VALID,1004.43,VALID,0,VALID,91.4474,VALID,0.100563,VALID,24.5777,VALID,347,VALID,0.0222656,
2009-04-29, 01:41:04,VALID,1004.41,VALID,0,VALID,91.5847,VALID,0.100563,VALID,24.5582,VALID,347,VALID,0,
2009-04-29, 01:42:04,VALID,1004.41,VALID,0,VALID,91.7068,VALID,0,VALID,24.5796,VALID,347,VALID,0,
2009-04-29, 01:43:04,VALID,1004.38,VALID,0,VALID,91.6763,VALID,0,VALID,24.5796,VALID,347,VALID,0,
2009-04-29, 01:44:04,VALID,1004.37,VALID,0,VALID,91.661,VALID,0,VALID,24.6009,VALID,347,VALID,0.00195313,
2009-04-29, 01:45:04,VALID,1004.38,VALID,0,VALID,91.6991,VALID,0,VALID,24.5406,VALID,347,VALID,0.0210938,
2009-04-29, 01:46:04,VALID,1004.36,VALID,0,VALID,91.6915,VALID,0,VALID,24.5601,VALID,347,VALID,0,
2009-04-29, 01:47:04,VALID,1004.36,VALID,0,VALID,91.6686,VALID,0,VALID,24.5212,VALID,347,VALID,0,
2009-04-29, 01:48:04,VALID,1004.35,VALID,0,VALID,91.6839,VALID,0,VALID,24.523,VALID,347,VALID,0,
2009-04-29, 01:49:04,VALID,1004.32,VALID,0,VALID,91.6686,VALID,0,VALID,24.5017,VALID,347,VALID,0,
2009-04-29, 01:50:04,VALID,1004.32,VALID,0,VALID,91.6686,VALID,0,VALID,24.5017,VALID,347,VALID,0.0542969,
2009-04-29, 01:51:04,VALID,1004.29,VALID,0,VALID,91.7144,VALID,0,VALID,24.5017,VALID,347,VALID,0.204688,
2009-04-29, 01:52:04,VALID,1004.32,VALID,0,VALID,91.6,VALID,0,VALID,24.4628,VALID,347,VALID,0.00234375,
2009-04-29, 01:53:04,VALID,1004.27,VALID,0,VALID,91.5923,VALID,0,VALID,24.4414,VALID,347,VALID,0.0304688,
2009-04-29, 01:54:04,VALID,1004.24,VALID,0,VALID,91.661,VALID,0,VALID,24.4433,VALID,347,VALID,0.1625,
2009-04-29, 01:55:04,VALID,1004.23,VALID,0,VALID,91.7297,VALID,0,VALID,24.4201,VALID,347,VALID,0.108984,
2009-04-29, 01:56:04,VALID,1004.24,VALID,0,VALID,91.5618,VALID,0,VALID,24.4822,VALID,347,VALID,0.0570313,
2009-04-29, 01:57:04,VALID,1004.23,VALID,0,VALID,91.4855,VALID,0,VALID,24.4804,VALID,347,VALID,0,
2009-04-29, 01:58:04,VALID,1004.23,VALID,0,VALID,91.4398,VALID,0,VALID,24.4609,VALID,347,VALID,0,
2009-04-29, 01:59:04,VALID,1004.24,VALID,0,VALID,91.4626,VALID,0,VALID,24.5017,VALID,347,VALID,0,
2009-04-29, 02:00:04,VALID,1004.22,VALID,0,VALID,91.333,VALID,0,VALID,24.4822,VALID,347,VALID,0,
2009-04-29, 02:01:04,VALID,1004.25,VALID,0,VALID,91.1651,VALID,0,VALID,24.4822,VALID,347,VALID,0,
2009-04-29, 02:02:04,VALID,1004.2,VALID,0,VALID,91.0125,VALID,0,VALID,24.5035,VALID,347,VALID,0,
2009-04-29, 02:03:04,VALID,1004.24,VALID,0,VALID,90.9439,VALID,0,VALID,24.4822,VALID,347,VALID,0,
2009-04-29, 02:04:04,VALID,1004.25,VALID,0,VALID,90.8752,VALID,0,VALID,24.4804,VALID,347,VALID,0,
2009-04-29, 02:05:04,VALID,1004.22,VALID,0,VALID,90.8218,VALID,0,VALID,24.4609,VALID,347,VALID,0,
2009-04-29, 02:06:04,VALID,1004.21,VALID,0,VALID,90.6998,VALID,0,VALID,24.4822,VALID,347,VALID,0,
2009-04-29, 02:07:04,VALID,1004.2,VALID,0,VALID,90.5472,VALID,0,VALID,24.4433,VALID,347,VALID,0.257031,
2009-04-29, 02:08:04,VALID,1004.2,VALID,0,VALID,90.5701,VALID,0,VALID,24.4238,VALID,348,VALID,0,
2009-04-29, 02:09:04,VALID,1004.19,VALID,0,VALID,90.6692,VALID,0,VALID,24.4628,VALID,2,VALID,0.0949219,
2009-04-29, 02:10:04,VALID,1004.24,VALID,0,VALID,90.5319,VALID,0,VALID,24.5017,VALID,8,VALID,0.269531,
2009-04-29, 02:11:04,VALID,1004.22,VALID,0,VALID,90.4099,VALID,0,VALID,24.4433,VALID,8,VALID,0.445313,
2009-04-29, 02:12:04,VALID,1004.22,VALID,0,VALID,90.5014,VALID,0,VALID,24.4043,VALID,8,VALID,0,
2009-04-29, 02:13:04,VALID,1004.24,VALID,0,VALID,90.5777,VALID,0,VALID,24.3849,VALID,8,VALID,0,
2009-04-29, 02:14:04,VALID,1004.26,VALID,0,VALID,90.6998,VALID,0,VALID,24.3459,VALID,8,VALID,0,
2009-04-29, 02:15:04,VALID,1004.29,VALID,0,VALID,90.7532,VALID,0,VALID,24.3265,VALID,8,VALID,0,
2009-04-29, 02:16:04,VALID,1004.3,VALID,0,VALID,90.7989,VALID,0,VALID,24.2875,VALID,8,VALID,0,
2009-04-29, 02:17:04,VALID,1004.32,VALID,0,VALID,90.9591,VALID,0,VALID,24.2681,VALID,8,VALID,0,
2009-04-29, 02:18:04,VALID,1004.33,VALID,0,VALID,91.0431,VALID,0,VALID,24.2486,VALID,8,VALID,0,
2009-04-29, 02:19:04,VALID,1004.34,VALID,0,VALID,91.0888,VALID,0,VALID,24.2097,VALID,8,VALID,0,
2009-04-29, 02:20:04,VALID,1004.33,VALID,0,VALID,91.1422,VALID,0,VALID,24.1902,VALID,8,VALID,0,
2009-04-29, 02:21:04,VALID,1004.32,VALID,0,VALID,91.1804,VALID,0,VALID,24.1513,VALID,8,VALID,0,
2009-04-29, 02:22:04,VALID,1004.32,VALID,0,VALID,91.1499,VALID,0,VALID,24.1318,VALID,8,VALID,0,
2009-04-29, 02:23:04,VALID,1004.32,VALID,0,VALID,91.188,VALID,0,VALID,24.0929,VALID,8,VALID,0,
2009-04-29, 02:24:04,VALID,1004.29,VALID,0,VALID,91.0812,VALID,0,VALID,24.0734,VALID,8,VALID,0,
2009-04-29, 02:25:04,VALID,1004.27,VALID,0,VALID,91.0812,VALID,0,VALID,24.0929,VALID,8,VALID,0,
2009-04-29, 02:26:04,VALID,1004.27,VALID,0,VALID,91.1422,VALID,0,VALID,24.0929,VALID,8,VALID,0,
2009-04-29, 02:27:04,VALID,1004.24,VALID,0,VALID,90.982,VALID,0,VALID,24.091,VALID,8,VALID,0,
2009-04-29, 02:28:04,VALID,1004.23,VALID,0,VALID,90.9515,VALID,0.100563,VALID,24.0716,VALID,8,VALID,0,
2009-04-29, 02:29:04,VALID,1004.23,VALID,0,VALID,91.0125,VALID,0.100563,VALID,24.1105,VALID,8,VALID,0,
2009-04-29, 02:30:04,VALID,1004.24,VALID,0,VALID,90.9515,VALID,0.100563,VALID,24.1105,VALID,8,VALID,0.16875,
2009-04-29, 02:31:04,VALID,1004.23,VALID,0,VALID,90.9515,VALID,0,VALID,24.1281,VALID,8,VALID,0.353906,
2009-04-29, 02:32:04,VALID,1004.23,VALID,0,VALID,90.8523,VALID,0.100563,VALID,24.1707,VALID,8,VALID,0.205469,
2009-04-29, 02:33:04,VALID,1004.24,VALID,0,VALID,90.7684,VALID,0.100563,VALID,24.1281,VALID,8,VALID,0.290625,
2009-04-29, 02:34:04,VALID,1004.29,VALID,0,VALID,90.8371,VALID,0.100563,VALID,24.1494,VALID,8,VALID,0.421875,
2009-04-29, 02:35:04,VALID,1004.31,VALID,0,VALID,90.9439,VALID,0,VALID,24.1494,VALID,8,VALID,0.380859,
2009-04-29, 02:36:04,VALID,1004.31,VALID,0,VALID,91.0659,VALID,0,VALID,24.1105,VALID,8,VALID,0.588672,
2009-04-29, 02:37:04,VALID,1004.31,VALID,0,VALID,91.0965,VALID,0.100563,VALID,24.13,VALID,8,VALID,0.520312,
2009-04-29, 02:38:04,VALID,1004.34,VALID,0,VALID,91.1041,VALID,0,VALID,24.1494,VALID,8,VALID,0.447266,
2009-04-29, 02:39:04,VALID,1004.32,VALID,0,VALID,91.0049,VALID,0.100563,VALID,24.1689,VALID,8,VALID,0.385547,
2009-04-29, 02:40:04,VALID,1004.32,VALID,0,VALID,90.9668,VALID,0.100563,VALID,24.1087,VALID,8,VALID,0.121484,
2009-04-29, 02:41:04,VALID,1004.33,VALID,0,VALID,90.9363,VALID,0.100563,VALID,24.13,VALID,8,VALID,0,
2009-04-29, 02:42:04,VALID,1004.34,VALID,0,VALID,90.921,VALID,0.100563,VALID,24.1105,VALID,8,VALID,0,
2009-04-29, 02:43:04,VALID,1004.32,VALID,0,VALID,90.9591,VALID,0,VALID,24.1105,VALID,8,VALID,0,
2009-04-29, 02:44:04,VALID,1004.33,VALID,0,VALID,90.9286,VALID,0,VALID,24.1105,VALID,8,VALID,0,
2009-04-29, 02:45:04,VALID,1004.35,VALID,0,VALID,90.921,VALID,0,VALID,24.1105,VALID,8,VALID,0.173047,
2009-04-29, 02:46:04,VALID,1004.34,VALID,0,VALID,90.8981,VALID,0.100563,VALID,24.13,VALID,8,VALID,0.391016,
2009-04-29, 02:47:04,VALID,1004.34,VALID,0,VALID,90.9439,VALID,0.100563,VALID,24.0892,VALID,10,VALID,0.545703,
2009-04-29, 02:48:04,VALID,1004.33,VALID,0,VALID,90.8981,VALID,0,VALID,24.0503,VALID,13,VALID,0.461719,
2009-04-29, 02:49:04,VALID,1004.34,VALID,0,VALID,90.8829,VALID,0.100563,VALID,24.0521,VALID,13,VALID,0.401953,
2009-04-29, 02:50:04,VALID,1004.35,VALID,0,VALID,90.9057,VALID,0,VALID,24.0521,VALID,13,VALID,0.205078,
2009-04-29, 02:51:04,VALID,1004.35,VALID,0,VALID,90.921,VALID,0,VALID,24.0308,VALID,13,VALID,0.209375,
2009-04-29, 02:52:04,VALID,1004.35,VALID,0,VALID,90.8905,VALID,0,VALID,24.0521,VALID,13,VALID,0.167969,
2009-04-29, 02:53:04,VALID,1004.38,VALID,0,VALID,90.8447,VALID,0.100563,VALID,24.0521,VALID,13,VALID,0.00195313,
2009-04-29, 02:54:04,VALID,1004.38,VALID,0,VALID,90.8523,VALID,0,VALID,24.0521,VALID,13,VALID,0.369141,
2009-04-29, 02:55:04,VALID,1004.42,VALID,0,VALID,90.8066,VALID,0,VALID,24.091,VALID,13,VALID,0.333984,
2009-04-29, 02:56:04,VALID,1004.41,VALID,0,VALID,90.7532,VALID,0,VALID,24.13,VALID,13,VALID,0.296875,
2009-04-29, 02:57:04,VALID,1004.44,VALID,0,VALID,90.7074,VALID,0.100563,VALID,24.1494,VALID,13,VALID,0.326953,
2009-04-29, 02:58:04,VALID,1004.44,VALID,0,VALID,90.6387,VALID,0.100563,VALID,24.1884,VALID,13,VALID,0.101563,
2009-04-29, 02:59:04,VALID,1004.45,VALID,0,VALID,90.5624,VALID,0.100563,VALID,24.1884,VALID,13,VALID,0.132422,
2009-04-29, 03:00:04,VALID,1004.48,VALID,0,VALID,90.4709,VALID,0,VALID,24.2273,VALID,13,VALID,0.505078,
2009-04-29, 03:01:04,VALID,1004.48,VALID,0,VALID,90.387,VALID,0.100563,VALID,24.2468,VALID,16,VALID,0.297266,
2009-04-29, 03:02:04,VALID,1004.46,VALID,0,VALID,90.2573,VALID,0,VALID,24.2662,VALID,17,VALID,0.402734,
2009-04-29, 03:03:04,VALID,1004.5,VALID,0,VALID,90.1047,VALID,0,VALID,24.2644,VALID,17,VALID,0.395312,
2009-04-29, 03:04:04,VALID,1004.42,VALID,0,VALID,90.0666,VALID,0.100563,VALID,24.2662,VALID,17,VALID,0.335547,
2009-04-29, 03:05:04,VALID,1004.45,VALID,0,VALID,90.0971,VALID,0.100563,VALID,24.206,VALID,17,VALID,0.367188,
2009-04-29, 03:06:04,VALID,1004.45,VALID,0,VALID,90.181,VALID,0.100563,VALID,24.1671,VALID,17,VALID,0.360547,
2009-04-29, 03:07:04,VALID,1004.48,VALID,0,VALID,90.3107,VALID,0.100563,VALID,24.1105,VALID,17,VALID,0.458594,
2009-04-29, 03:08:04,VALID,1004.49,VALID,0,VALID,90.5243,VALID,0,VALID,24.0716,VALID,17,VALID,0.45,
2009-04-29, 03:09:04,VALID,1004.5,VALID,0,VALID,90.8447,VALID,0.100563,VALID,24.0308,VALID,17,VALID,0.342187,
2009-04-29, 03:10:04,VALID,1004.51,VALID,0,VALID,91.0659,VALID,0,VALID,23.9724,VALID,17,VALID,0.531641,
2009-04-29, 03:11:04,VALID,1004.52,VALID,0,VALID,91.2414,VALID,0.100563,VALID,23.9742,VALID,17,VALID,0.495313,
2009-04-29, 03:12:04,VALID,1004.56,VALID,0,VALID,91.3635,VALID,0.100563,VALID,23.9353,VALID,17,VALID,0.310547,
2009-04-29, 03:13:04,VALID,1004.55,VALID,0,VALID,91.5237,VALID,0,VALID,23.8751,VALID,17,VALID,0.221484,
2009-04-29, 03:14:04,VALID,1004.58,VALID,0,VALID,91.6534,VALID,0.100563,VALID,23.8964,VALID,17,VALID,0.0121094,
2009-04-29, 03:15:04,VALID,1004.58,VALID,0,VALID,91.7297,VALID,0,VALID,23.8575,VALID,17,VALID,0.145313,
2009-04-29, 03:16:04,VALID,1004.58,VALID,0,VALID,91.8441,VALID,0.100563,VALID,23.8362,VALID,17,VALID,0,
2009-04-29, 03:17:04,VALID,1004.6,VALID,0,VALID,91.8899,VALID,0.100563,VALID,23.8167,VALID,17,VALID,0.00429688,
2009-04-29, 03:18:04,VALID,1004.55,VALID,0,VALID,91.8975,VALID,0.100563,VALID,23.7973,VALID,17,VALID,0,
2009-04-29, 03:19:04,VALID,1004.55,VALID,0,VALID,91.9585,VALID,0,VALID,23.8167,VALID,17,VALID,0,
2009-04-29, 03:20:04,VALID,1004.57,VALID,0,VALID,91.9204,VALID,0,VALID,23.838,VALID,17,VALID,0.213281,
2009-04-29, 03:21:04,VALID,1004.56,VALID,0,VALID,91.8746,VALID,0,VALID,23.7973,VALID,47,VALID,0.364062,
2009-04-29, 03:22:04,VALID,1004.57,VALID,0,VALID,91.8517,VALID,0.100563,VALID,23.8167,VALID,47,VALID,0.491016,
2009-04-29, 03:23:04,VALID,1004.54,VALID,0,VALID,91.7297,VALID,0.100563,VALID,23.8167,VALID,57,VALID,0.378906,
2009-04-29, 03:24:04,VALID,1004.56,VALID,0,VALID,91.5313,VALID,0.100563,VALID,23.8769,VALID,57,VALID,0.167578,
2009-04-29, 03:25:04,VALID,1004.58,VALID,0,VALID,91.455,VALID,0.100563,VALID,23.8964,VALID,57,VALID,0,
2009-04-29, 03:26:04,VALID,1004.58,VALID,0,VALID,91.4245,VALID,0,VALID,23.8964,VALID,57,VALID,0,
2009-04-29, 03:27:04,VALID,1004.6,VALID,0,VALID,91.394,VALID,0,VALID,23.8982,VALID,57,VALID,0,
2009-04-29, 03:28:04,VALID,1004.64,VALID,0,VALID,91.2719,VALID,0,VALID,23.8787,VALID,57,VALID,0,
2009-04-29, 03:29:04,VALID,1004.61,VALID,0,VALID,91.3177,VALID,0,VALID,23.9195,VALID,57,VALID,0,
2009-04-29, 03:30:04,VALID,1004.65,VALID,0,VALID,91.4245,VALID,0,VALID,23.8787,VALID,57,VALID,0.330469,
2009-04-29, 03:31:04,VALID,1004.65,VALID,0,VALID,91.4245,VALID,0,VALID,23.8787,VALID,57,VALID,0.360547,
2009-04-29, 03:32:04,VALID,1004.66,VALID,0,VALID,91.333,VALID,0,VALID,23.8398,VALID,57,VALID,0.351172,
2009-04-29, 03:33:04,VALID,1004.67,VALID,0,VALID,91.4016,VALID,0,VALID,23.8203,VALID,57,VALID,0.173047,
2009-04-29, 03:34:04,VALID,1004.68,VALID,0,VALID,91.3558,VALID,0,VALID,23.7814,VALID,57,VALID,0.204297,
2009-04-29, 03:35:04,VALID,1004.69,VALID,0,VALID,91.5008,VALID,0,VALID,23.7796,VALID,57,VALID,0.307422,
2009-04-29, 03:36:04,VALID,1004.69,VALID,0,VALID,91.6305,VALID,0,VALID,23.7814,VALID,57,VALID,0.329297,
2009-04-29, 03:37:04,VALID,1004.72,VALID,0,VALID,91.661,VALID,0,VALID,23.7796,VALID,37,VALID,0.561719,
2009-04-29, 03:38:04,VALID,1004.7,VALID,0,VALID,91.7373,VALID,0,VALID,23.7619,VALID,26,VALID,0.580078,
2009-04-29, 03:39:04,VALID,1004.71,VALID,0,VALID,91.8594,VALID,0,VALID,23.7425,VALID,22,VALID,0.607031,
2009-04-29, 03:40:04,VALID,1004.7,VALID,0,VALID,91.9509,VALID,0,VALID,23.7017,VALID,18,VALID,0.580859,
2009-04-29, 03:41:04,VALID,1004.68,VALID,0,VALID,92.0348,VALID,0,VALID,23.6628,VALID,18,VALID,0.482812,
2009-04-29, 03:42:04,VALID,1004.73,VALID,0,VALID,92.0958,VALID,0,VALID,23.6628,VALID,18,VALID,0.426172,
2009-04-29, 03:43:04,VALID,1004.69,VALID,0,VALID,92.1264,VALID,0,VALID,23.6452,VALID,18,VALID,0.494531,
2009-04-29, 03:44:04,VALID,1004.72,VALID,0,VALID,92.2027,VALID,0,VALID,23.6044,VALID,18,VALID,0.485938,
2009-04-29, 03:45:04,VALID,1004.71,VALID,0,VALID,92.2103,VALID,0,VALID,23.6062,VALID,18,VALID,0.499609,